Weather past 2 weeks in Jamestown, Saint Helena

Now
68 °F

Mild.


Feels Like: 68 °F
Forecast: 74 / 77 °F
Wind: 8 mph from Southeast

Location: Saint Helena Island

Current Time: Mar 4, 2015 at 12:08:53 AM

Latest Report: Mar 3, 2015 at 11:00 PM


Visibility: N/A

Pressure: 30.03 "Hg

Humidity: 87%

Dew point: 64 °F

Location of JamestownLocation

Historic Weather in Jamestown — Graph

°F

Jamestown temperature yesterday

Maximum temperature yesterday: 75 °F (at 1:00 PM)
Minimum temperature yesterday: 63 °F (at 5:00 AM)
Average temperature yesterday: 70 °F

Past Weeks' High & Low Weather Summary

 TemperatureHumidityPressure
High76 °F (Mar 2, 1:00 PM)100% (Feb 17, 4:00 AM)30.10 "Hg (Feb 17, 4:00 AM)
Low63 °F (Mar 3, 5:00 AM)58% (Mar 1, 12:00 PM)29.88 "Hg (Feb 26, 4:00 PM)
Average70 °F85%29.98 "Hg
* Reported Feb 16 9:00 PM — Mar 3 9:00 PM, Jamestown, Weather by CustomWeather, © 2015

Note: Actual official high and low records may vary slightly from our data, if they occured in-between our weather recording intervals... More about our weather records

Advertising

Jamestown weather history for previous 24 hours

 ConditionsComfort  
Time TempWeatherWind HumidityBarometerVisibility
9:00 PM
Tue, Mar 3
68 °FMild.12 mph87%29.99 "HgN/A
8:00 PM69 °FMild.10 mph87%29.97 "HgN/A
7:00 PM69 °FMild.12 mph90%29.94 "HgN/A
6:00 PM71 °FMild.9 mph69%29.92 "HgN/A
5:00 PM73 °FMild.8 mph66%29.90 "HgN/A
4:00 PM74 °FMild.7 mph63%29.90 "HgN/A
3:00 PM73 °FScattered clouds.9 mph66%29.91 "Hg40 mi
2:00 PM75 °FScattered clouds.12 mph69%29.92 "Hg37 mi
1:00 PM75 °FScattered clouds.10 mph65%29.95 "Hg37 mi
12:00 PM73 °FPartly sunny.10 mph70%29.98 "Hg31 mi
11:00 AM73 °FOvercast.7 mph71%29.98 "Hg31 mi
10:00 AM71 °FOvercast.8 mph73%29.98 "Hg28 mi
9:00 AM71 °FOvercast.5 mph73%29.98 "Hg25 mi
8:00 AM67 °FMild.5 mph84%29.97 "HgN/A
7:00 AM65 °FMild.5 mph94%29.97 "HgN/A
5:00 AM63 °FMild.7 mph94%29.95 "HgN/A
4:00 AM66 °FMild.5 mph91%29.93 "HgN/A
3:00 AM67 °FMild.7 mph84%29.93 "HgN/A
2:00 AM67 °FMild.9 mph84%29.94 "HgN/A
1:00 AM67 °FMild.6 mph83%29.95 "HgN/A
Weather by CustomWeather, © 2015

See weather overviewHow to use our weather pages